Location: Newark
(48.6110°N, 6.2360°E)
Time: 19:19:35
(UTC+00:00)

N. Korean satellite - Visible Passes

Search period start: 07 December 2019 00:00
Search period end: 17 December 2019 00:00
Orbit: 456 x 506 km, 97.2° (Epoch: 06 December)

Date Brightness Start Highest point End Pass type
(mag) Time Alt. Az. Time Alt. Az. Time Alt. Az.
07 Dec 9.2 04:44:57 10° NE 04:47:45 21° E 04:50:30 10° SE visible
07 Dec 7.3 06:18:01 10° N 06:21:11 30° WNW 06:24:18 10° SW visible
07 Dec 7.9 16:56:25 10° S 17:00:00 45° W 17:03:35 10° NNW visible
08 Dec 10.1 04:20:53 10° ENE 04:22:05 11° E 04:23:14 10° ESE visible
08 Dec 6.5 05:52:20 10° N 05:55:52 58° WNW 05:59:19 10° SSW visible
08 Dec 6.6 16:30:49 10° SSE 16:34:32 89° E 16:38:15 10° NNW visible
09 Dec 6.8 05:26:53 10° NNE 05:30:27 67° E 05:33:55 10° S visible
09 Dec 9.9 17:40:26 10° SW 17:42:47 16° W 17:45:07 10° NW visible
10 Dec 8.4 05:01:40 10° NNE 05:04:56 32° E 05:08:06 10° SSE visible
10 Dec 7.9 06:35:29 10° NNW 06:38:08 20° WNW 06:40:44 10° WSW visible
10 Dec 8.8 17:13:54 10° SSW 17:17:10 29° W 17:20:25 10° NNW visible
11 Dec 9.5 04:36:53 10° NE 04:39:18 17° E 04:41:41 10° SE visible
11 Dec 7.0 06:09:34 10° N 06:12:52 36° WNW 06:16:05 10° SW visible
11 Dec 7.4 16:47:59 10° S 16:51:38 56° W 16:55:17 10° NNW visible
12 Dec 6.4 05:43:57 10° N 05:47:30 74° WNW 05:50:58 10° SSW visible
12 Dec 6.6 16:22:30 10° SSE 16:26:11 72° ENE 16:29:52 10° N visible
12 Dec 10.3 17:59:33 10° W 18:00:02 10° W 18:00:31 10° W visible
13 Dec 7.3 05:18:34 10° NNE 05:22:02 52° E 05:25:26 10° S visible
13 Dec 9.6 17:31:39 10° SW 17:34:21 19° W 17:37:02 10° NW visible
14 Dec 8.8 04:53:28 10° NE 04:56:28 26° E 04:59:27 10° SSE visible
14 Dec 7.6 06:26:55 10° NNW 06:29:48 24° WNW 06:32:37 10° WSW visible
14 Dec 8.4 17:05:20 10° SSW 17:08:45 35° W 17:12:09 10° NNW visible
15 Dec 9.8 04:28:55 10° ENE 04:30:50 14° E 04:32:42 10° ESE visible
15 Dec 6.7 06:01:07 10° N 06:04:30 44° WNW 06:07:48 10° SW visible
15 Dec 6.9 16:39:34 10° S 16:43:15 71° W 16:46:54 10° NNW visible
16 Dec 6.4 05:35:33 10° NNE 05:39:06 88° ESE 05:42:33 10° SSW visible
16 Dec 6.7 16:14:12 10° SSE 16:17:50 57° ENE 16:21:25 10° N visible
16 Dec 10.0 17:49:55 10° WSW 17:51:33 12° W 17:53:10 10° WNW visible
